Regional Weather Roundup
Issued by NWS

Home | Current Version | Previous Version | Text Only | Print | Product List | Glossary Off
Versions: 1 2 3 4 5 6 7 8 9 10 11 12 13 14 15 16 17 18 19 20 21 22 23 24 25 26 27 28 29 30 31 32 33 34 35 36 37 38 39 40 41 42 43 44 45 46 47 48 49 50

000
ASUS43 KMPX 210110
RWRMN
WEATHER ROUNDUP FOR MINNESOTA
NATIONAL WEATHER SERVICE TWIN CITIES/CHANHASSEN MN
700 PM CST SAT DEC 20 2014


NOTE: "FAIR" INDICATES FEW OR NO CLOUDS BELOW 12,000 FEET WITH NO
SIGNIFICANT WEATHER AND/OR OBSTRUCTIONS TO VISIBILITY. N/A MEANS
CURRENT SKY AND/OR WEATHER CONDITIONS ARE NOT AVAILABLE.

MNZ060>063-068>070-210200-
   Twin Cities Metro

CITY           SKY/WX    TMP DP  RH WIND       PRES   REMARKS
TWIN CITIES    CLOUDY    32  26  78 SE14      30.11F WCI  22
ST PAUL        CLOUDY    32  28  85 S9        30.13S WCI  24
CRYSTAL        CLOUDY    32  27  81 S13       30.09F WCI  22
BLAINE         CLOUDY    34  30  86 S12       30.10S WCI  25
LAKEVILLE      CLOUDY    30  27  86 S8        30.11S WCI  23
EDEN PRAIRIE   CLOUDY    31  26  82 S10       30.09F WCI  22
SOUTH ST PAUL  CLOUDY    33  28  84 S7        30.11F WCI  26
LAKE ELMO      CLOUDY    32  30  93 S9        30.12S WCI  24
$$
MNZ001>005-007-008-013>017-022>024-027-028-210200-
   Northwest Minnesota

CITY           SKY/WX    TMP DP  RH WIND       PRES   REMARKS
BEMIDJI        CLOUDY    28  28  96 S10       29.97S FOG     WCI  19
HALLOCK        CLOUDY    28  28 100 CALM      29.91S FOG
ROSEAU         CLOUDY    30  27  86 S8        29.93S FOG     WCI  23
WARROAD        CLOUDY    28  27  93 S10       29.94F FOG     WCI  19
THIEF RVR FALL CLOUDY    28  28 100 S12       29.93S WCI  18
CROOKSTON      CLOUDY    30  28  93 S17G23    29.94F FOG     WCI  18
FOSSTON        CLOUDY    27  27 100 S13       29.94F FOG     WCI  16
DETROIT LAKES  CLOUDY    30  30 100 S15       29.95F FOG     WCI  19
MOORHEAD       CLOUDY    32  32 100 S18       29.94F FOG     WCI  20
PARK RAPIDS    CLOUDY    29  27  92 S12       29.98S FOG     WCI  19
MAHNOMEN       CLOUDY    29  28  95 S12G18    29.94F FOG     WCI  20
$$
MNZ006-009>011-018-025>026-210200-
   North Central Minnesota

CITY           SKY/WX    TMP DP  RH WIND       PRES   REMARKS
BAUDETTE       CLOUDY    30  27  88 S10       29.95F WCI  21
FLAG ISLAND    CLOUDY    28  28 100 S12       29.93F FOG     WCI  18
INTL FALLS     CLOUDY    30  28  92 S3        29.99S FOG
WASKISH        CLOUDY    30  28  93 CALM      29.96F FOG
BIG FORK       MIX PCPN  30  27  86 S10       30.00S WCI  21
LONGVILLE      CLOUDY    28  27  93 S12G18    30.00F WCI  18
GRAND RAPIDS   CLOUDY    28  25  86 S10       30.01F WCI  19
CRANE LAKE     CLOUDY    28  27  93 S5        30.04F FOG     WCI  23
ORR            CLOUDY    28  27  93 S8        29.99S WCI  20
COOK           CLOUDY    28  27  93 S9G16     30.02F FOG     WCI  20
WALKER         CLOUDY    28  27  94 S10       29.98F WCI  19
$$
MNZ012-019>021-037-210200-
   Northeast Minnesota

CITY           SKY/WX    TMP DP  RH WIND       PRES   REMARKS
DULUTH         CLOUDY    30  25  81 S13       30.05S WCI  20
ELY            CLOUDY    28  27  93 S9        30.04S WCI  20
HIBBING        CLOUDY    30  26  85 S6        30.03S FOG     WCI  24
EVELETH        CLOUDY    30  28  93 S9        30.04F FOG     WCI  22
DULUTH HARBOR  CLOUDY    32  28  86 CALM      30.11S
TWO HARBORS    CLOUDY    34  28  80 S9        30.07S WCI  26
SILVER BAY     CLOUDY    32  28  86 S10       30.07S WCI  24
GRAND MARAIS     N/A     35  29  78 S13       30.12S WCI  26
G MARAIS ARPRT CLOUDY    27  25  93 S5        30.06S FOG     WCI  21
$$
MNZ029>031-032-039>041-046>048-054>057-064-210200-
   West Central Minnesota

CITY           SKY/WX    TMP DP  RH WIND       PRES   REMARKS
FERGUS FALLS   CLOUDY    30  28  93 S17       30.00S FOG     WCI  18
WHEATON        CLOUDY    30  28  93 SE14      29.99S WCI  20
MORRIS         MOCLDY    30  28  93 S16       29.99R FOG     WCI  19
ALEXANDRIA     CLOUDY    30  27  88 S20       30.00F WCI  17
ELBOW LAKE     CLOUDY    30  29  96 S14       29.98R WCI  19
WADENA         CLOUDY    28  27  93 SE15      29.98F FOG     WCI  17
GLENWOOD       CLOUDY    28  28 100 SE14G20   30.01F FOG     WCI  17
APPLETON       CLOUDY    32  28  86 S10       30.00F FOG     WCI  24
BENSON         CLOUDY    30  28  93 S10       30.02R WCI  21
ORTONVILLE     CLOUDY    30  28  93 S13       29.97F WCI  20
MADISON          N/A     34  32  93 S15       30.00S FOG     WCI  24
WILLMAR        CLOUDY    30  28  93 SE12G17   30.04F WCI  21
$$
MNZ033>034-036-042>043-049>051-058-059-210200-
   Central Minnesota

CITY           SKY/WX    TMP DP  RH WIND       PRES   REMARKS
ST CLOUD       CLOUDY    31  25  78 S12       30.08R WCI  22
SAUK CENTRE    CLOUDY    29  27  93 S13       30.03F WCI  19
PAYNESVILLE    CLOUDY    27  26  96 SE9       30.05F WCI  18
AITKIN         CLOUDY    30  25  80 S6        30.03F WCI  24
PINE RIVER     CLOUDY    28  27  93 S10       30.04F WCI  19
BRAINERD       CLOUDY    28  26  92 S15       30.04F WCI  16
STAPLES        CLOUDY    28  27  93 S14       30.01S WCI  17
LONG PRAIRIE   CLOUDY    28  28 100 SE16      30.03R WCI  17
LITTLE FALLS   CLOUDY    30  27  86 SE10      30.06S WCI  21
LITCHFIELD     CLOUDY    30  30 100 S5        30.07S WCI  25
BUFFALO        CLOUDY    30  26  84 S8        30.09F WCI  22
MAPLE LAKE     CLOUDY    31  28  90 SE7       30.09S WCI  24
$$
MNZ037-044-045-052-053-210200-
   East Central Minnesota

CITY           SKY/WX    TMP DP  RH WIND       PRES   REMARKS
PRINCETON      CLOUDY    30  27  86 S5        30.09S WCI  25
MORA           CLOUDY    32  27  80 S9        30.10F WCI  24
CAMBRIDGE      CLOUDY    34  25  69 S10       30.07F WCI  26
RUSH CITY      CLOUDY    31  27  86 S5        30.10F WCI  26
MOOSE LAKE     CLOUDY    32  28  86 S10       30.06S WCI  24
HINCKLEY       CLOUDY    32  30  93 S12       30.09S WCI  23
CLOQUET        CLOUDY    30  27  86 S8        30.06S WCI  23
MCGREGOR       CLOUDY    30  28  93 S10       30.05F WCI  21
$$
MNZ071>073-080-081-089-090-097-098-210200-
   Southwest Minnesota

CITY           SKY/WX    TMP DP  RH WIND       PRES   REMARKS
MONTEVIDEO     CLOUDY    30  30 100 SW12      30.03S WCI  21
GRANITE FALLS  CLOUDY    31  29  92 SE12G20   30.05R WCI  22
CANBY          CLOUDY    31  29  94 S7        30.01F FOG     WCI  24
MARSHALL       CLOUDY    30  27  86 S15G22    30.02F WCI  19
REDWOOD FALLS  CLOUDY    32  28  85 S14       30.05F WCI  22
OLIVIA         CLOUDY    32  30  93 S13       30.04F WCI  22
PIPESTONE      CLOUDY    28  28 100 S7        29.99S FOG     WCI  21
WINDOM         CLOUDY    30  28  93 S12G20    30.04S WCI  21
WORTHINGTON    CLOUDY    30  28  93 S16       30.03F WCI  19
JACKSON        CLOUDY    32  30  93 S15       30.05F WCI  22
TRACY          CLOUDY    31  29  94 S13G18    30.03R WCI  21
SLAYTON        CLOUDY    29  29 100 S7        30.02S FOG     WCI  22
$$
MNZ065>067-074>077-082>085-091>093-210200-
   South Central Minnesota

CITY           SKY/WX    TMP DP  RH WIND       PRES   REMARKS
MANKATO        CLOUDY    30  25  80 S8        30.09F WCI  23
NEW ULM        CLOUDY    30  30 100 S12       30.07S WCI  21
ST JAMES       CLOUDY    34  30  86 SE15      30.08F WCI  24
FAIRMONT       CLOUDY    32  27  80 S13       30.08S WCI  22
GLENCOE        CLOUDY    32  29  91 S7        30.09R WCI  25
FARIBAULT      CLOUDY    30  27  86 S9        30.11S WCI  22
OWATONNA       CLOUDY    30  27  86 S10       30.11S WCI  21
WASECA         CLOUDY    32  30  93 SE8       30.12S WCI  25
ALBERT LEA     CLOUDY    30  28  93 S7        30.10F FOG     WCI  23
$$
MNZ078>079-086>088-094>096-210200-
   Southeast Minnesota

CITY           SKY/WX    TMP DP  RH WIND       PRES   REMARKS
ROCHESTER      CLOUDY    30  28  92 S9        30.13S WCI  22
RED WING       CLOUDY    34  28  80 S7        30.13F WCI  28
STANTON        CLOUDY    32  28  85 S8        30.11S WCI  25
DODGE CENTER   CLOUDY    30  28  93 S12       30.11F WCI  21
WINONA         CLOUDY    34  32  93 SE6       30.18S FOG     WCI  29
AUSTIN         CLOUDY    30  27  86 CALM      30.12S
PRESTON        CLOUDY    30  28  95 S8        30.14S FOG     WCI  22
$$
ABBREVIATIONS USED IN REMARKS
   TC - TEMPERATURES IN CELSIUS
  WCI - WIND CHILL INDEX
   HX - HEAT INDEX
  VSB - VISIBILITY
$$



USA.gov is the U.S. government's official web portal to all federal, state and local government web resources and services.